Regional Weather Roundup
Issued by NWS

Home | Current Version | Previous Version | Graphics & Text | Print | Product List | Glossary Off
Versions: 1 2 3 4 5 6 7 8 9 10 11 12 13 14 15 16 17 18 19 20 21 22 23 24 25 26 27 28 29 30 31 32 33 34 35 36 37 38 39 40 41 42 43 44 45 46 47 48 49 50

000
ASUS43 KTOP 241759
RWRKS

WEATHER ROUNDUP FOR KANSAS
NATIONAL WEATHER SERVICE GOODLAND KS
100 PM CDT MON APR 24 2017

NOTE:  "FAIR" INDICATES FEW OR NO CLOUDS BELOW 12,000 FEET WITH NO
SIGNIFICANT WEATHER AND/OR OBSTRUCTIONS TO VISIBILITY.

KSZ001>006-013>018-027>032-041>047-241900-
NORTHWEST KANSAS

CITY           SKY/WX    TMP DP  RH WIND       PRES   REMARKS
GOODLAND       SUNNY     71  40  32 N18G28    29.62F
6HR MIN TEMP:  49; 6HR MAX TEMP:  71;

HILL CITY      CLOUDY    74  43  32 NW17G24   29.55S
6HR MIN TEMP:  53; 6HR MAX TEMP:  74;

RUSSELL        CLOUDY    71  41  33 S29G39    29.55F
6HR MIN TEMP:  52; 6HR MAX TEMP:  72;

$$

KSZ061>065-074>080-084>089-241900-
SOUTHWEST KANSAS

CITY           SKY/WX    TMP DP  RH WIND       PRES   REMARKS
DODGE CITY     SUNNY     76  43  30 SW12G23   29.60F
6HR MIN TEMP:  49; 6HR MAX TEMP:  76;

ELKHART          N/A    N/A N/A N/A MISG        N/A
GARDEN CITY    SUNNY     74  43  32 NW9       29.61S
6HR MIN TEMP:  49; 6HR MAX TEMP:  75;

GREAT BEND     PTSUNNY   71  46  40 S23G36    29.57F
$$

KSZ066>073-081>083-090>101-241900-
SOUTHEAST KANSAS

CITY           SKY/WX    TMP DP  RH WIND       PRES   REMARKS
CHANUTE        SUNNY     70  43  37 S24G33    29.77F
6HR MIN TEMP:  46; 6HR MAX TEMP:  71;

COFFEYVILLE    SUNNY     70  43  37 S20G28    29.81F
6HR MIN TEMP:  43; 6HR MAX TEMP:  70;

HUTCHINSON     SUNNY     70  44  39 S29G39    29.63F
6HR MIN TEMP:  51; 6HR MAX TEMP:  70;

MEDICINE LODGE   N/A     72  42  34 S29G37    29.62F
NEWTON         SUNNY     68  48  48 S30G39    29.65F
PARSONS        SUNNY     70  44  39 S15G25    29.80F
6HR MIN TEMP:  47; 6HR MAX TEMP:  70;

WICHITA INTL   MOSUNNY   71  46  40 S30G40    29.66F
6HR MIN TEMP:  48; 6HR MAX TEMP:  71;

WICHITA JABRA  SUNNY     70  45  40 S30G40    29.66F
6HR MIN TEMP:  48; 6HR MAX TEMP:  70;

WICHITA MCCONL SUNNY     70  44  38 S29G38    29.67F
WINFIELD       SUNNY     70  47  43 S22G35    29.72F
6HR MIN TEMP:  47; 6HR MAX TEMP:  70;

$$

KSZ007>012-019>026-033>040-048>060-102>105-241900-
NORTHEAST KANSAS

CITY           SKY/WX    TMP DP  RH WIND       PRES   REMARKS
CONCORDIA      PTSUNNY   67  45  45 S25G35    29.56F
6HR MIN TEMP:  49; 6HR MAX TEMP:  68;

EMPORIA        SUNNY     69  42  37 S25G35    29.71F
6HR MIN TEMP:  46; 6HR MAX TEMP:  69;

LAWRENCE       SUNNY     73  40  30 S24G31    29.73F
6HR MIN TEMP:  43; 6HR MAX TEMP:  73;

MANHATTAN      SUNNY     73  42  32 S25G36    29.63F
6HR MIN TEMP:  51; 6HR MAX TEMP:  73;

OLATHE IND     SUNNY     71  38  29 S21G32    29.77F
6HR MIN TEMP:  45; 6HR MAX TEMP:  71;

OLATHE EXE     SUNNY     69  40  34 S25G32    29.76F
6HR MIN TEMP:  42; 6HR MAX TEMP:  69;

SALINA         CLOUDY    73  46  38 S21G41    29.61S
6HR MIN TEMP:  53; 6HR MAX TEMP:  73;

TOPEKA BILLARD SUNNY     71  40  32 S23G32    29.73F
6HR MIN TEMP:  47; 6HR MAX TEMP:  71;

TOPEKA FORBES  SUNNY     71  41  33 S21G36    29.72S
6HR MIN TEMP:  50; 6HR MAX TEMP:  72; 6HR PCP: TRACE;

$$




USA.gov is the U.S. government's official web portal to all federal, state and local government web resources and services.